Theta_e
320 320 320 320 320 320 320 320 320 320 320 321 321 321 320 320 322 323 315 319 320 334 332 325 320 319 320 317 319 318 315 312 310 312 316 322 321 325 326 324 326 329 328 335 344
319 319 320 320 320 320 320 320 320 320 320 320 320 320 319 320 322 319 326 330 335 333 321 318 315 316 315 315 317 315 315 312 314 315 314 319 319 322 322 322 323 327 334 337 338
318 319 319 319 319 319 319 319 320 319 320 320 320 319 320 324 321 318 332 333 338 334 321 320 317 314 312 314 314 315 314 314 314 315 315 315 317 322 321 320 322 324 333 333 331
317 318 318 318 318 319 318 319 319 319 319 319 319 319 321 325 311 326 337 336 340 323 318 316 314 311 311 310 314 310 314 313 313 313 313 313 317 319 321 322 326 327 335 334 332
317 317 317 318 318 318 318 318 319 318 318 318 318 319 322 317 317 336 340 335 323 317 315 314 312 312 310 311 311 310 313 313 314 315 315 315 314 317 320 325 327 331 334 334 333
317 317 317 317 317 317 317 317 317 317 317 319 318 320 320 312 322 335 324 321 318 316 314 315 313 315 312 310 310 313 312 314 315 315 316 314 315 317 321 326 325 331 333 333 332
316 316 316 316 316 317 317 316 316 318 320 320 320 324 317 313 324 335 323 318 319 316 312 316 317 314 313 310 313 312 309 313 315 316 318 319 314 316 323 326 326 330 332 332 333
315 315 315 316 316 317 317 316 317 320 320 321 323 324 312 320 328 322 320 318 319 317 315 316 317 314 313 314 312 309 310 308 314 317 320 320 311 319 325 326 327 329 330 331 333
315 315 315 315 316 316 315 315 321 322 323 324 325 320 310 318 319 323 320 316 317 316 316 315 316 313 312 308 307 308 303 306 309 315 318 318 312 320 325 326 326 329 329 330 331
315 314 314 314 315 315 313 315 323 323 325 325 324 316 315 315 321 320 318 317 311 312 312 312 313 309 309 307 300 303 303 305 306 311 312 311 311 316 320 322 324 326 329 330 330
315 314 313 314 314 313 316 320 318 315 317 312 311 310 313 317 319 318 318 316 313 311 307 311 307 304 307 307 307 305 304 304 307 311 309 310 311 313 316 319 320 321 326 329 331
314 314 313 313 313 312 317 316 314 315 310 313 312 312 313 314 312 316 319 314 312 307 310 307 304 308 308 307 305 304 303 304 307 310 309 309 309 313 315 317 319 320 322 326 329
313 313 313 313 312 317 318 316 319 318 310 310 311 311 311 312 312 314 318 316 310 308 307 305 306 308 307 305 303 305 304 304 304 308 310 308 306 310 314 317 321 325 326 327 328
312 312 312 310 314 318 318 318 321 318 308 308 311 310 311 313 310 317 321 317 312 308 308 307 309 306 305 304 306 303 308 306 305 305 301 309 299 308 311 313 315 318 320 322 326
312 312 311 310 315 316 318 320 320 316 298 310 309 315 312 310 311 311 321 316 311 309 309 306 305 305 304 305 308 305 308 307 307 305 305 305 302 306 310 309 312 316 318 322 324
312 311 310 314 316 317 319 320 317 304 296 305 309 308 307 310 309 311 313 315 315 311 311 310 312 309 309 309 310 310 308 308 308 306 299 304 303 303 308 310 313 315 317 319 322
311 310 309 315 316 319 320 317 303 297 306 303 305 308 307 306 306 308 308 309 307 303 304 308 308 311 311 307 311 309 306 299 299 299 299 305 302 305 311 314 314 314 319 324 326
308 307 311 316 320 320 319 309 298 299 303 307 307 306 305 307 306 307 307 306 309 308 305 303 301 308 310 309 306 307 307 301 294 296 300 305 300 306 314 315 316 320 324 327 328
306 318 320 323 322 321 312 302 302 302 305 305 306 303 303 305 305 307 306 305 308 309 303 303 302 309 309 311 310 308 304 309 304 305 300 303 307 311 314 316 318 320 323 324 326
311 313 320 320 324 318 309 301 303 306 307 307 303 303 302 303 304 305 306 309 308 312 313 308 301 307 309 312 311 309 311 303 305 297 295 301 303 304 311 315 318 319 320 322 324
313 310 316 321 322 316 306 306 304 309 309 307 305 305 303 303 304 303 304 308 310 310 313 311 306 305 308 306 306 307 306 307 306 304 297 296 301 312 316 316 317 318 319 320 321
313 309 316 321 312 314 309 307 302 308 310 308 309 308 306 305 304 304 304 308 311 312 307 312 308 302 304 310 310 309 307 307 302 301 304 302 301 316 316 316 317 317 318 320 321
308 309 320 319 307 308 308 305 307 307 307 307 307 309 310 307 303 305 307 309 310 311 310 312 308 300 302 307 309 307 309 310 308 309 302 299 302 316 316 316 317 317 317 318 319
308 306 313 316 313 308 305 304 303 306 306 308 307 309 310 307 310 307 306 308 309 311 312 314 309 305 299 303 306 303 304 307 307 302 302 302 305 310 313 314 315 316 317 317 317
311 307 307 307 307 308 306 304 302 302 307 308 306 306 307 305 306 305 307 307 307 306 310 311 304 306 306 304 302 301 301 302 302 303 298 301 302 306 312 312 313 314 316 315 315
306 306 309 309 305 305 301 304 302 303 304 304 304 305 306 305 305 303 305 306 304 308 308 308 300 301 298 300 299 297 299 299 299 300 300 301 302 313 313 313 313 314 313 314 314
311 312 308 301 303 303 304 303 303 304 305 306 305 305 304 306 307 308 309 309 308 305 303 303 300 299 294 297 297 294 299 300 302 305 305 301 308 311 310 310 310 309 310 313 314
Wind_Speed
19 19 18 18 18 18 18 18 17 16 15 13 12 10 8 8 7 9 10 2 4 16 7 13 10 8 8 6 5 5 7 4 6 3 9 6 1 2 3 4 3 4 3 8 18
19 20 19 19 19 19 19 19 18 17 15 13 11 9 7 6 10 10 5 7 8 15 16 15 12 11 7 6 5 8 8 4 6 6 6 3 4 7 7 7 6 7 7 16 18
21 21 20 20 21 20 20 20 19 18 15 13 10 8 6 8 8 6 11 10 12 12 11 9 8 10 8 6 8 4 9 6 4 4 4 3 4 5 8 6 6 9 14 18 17
22 23 23 22 22 20 21 21 20 19 16 12 9 6 5 7 1 7 10 12 11 9 12 10 11 11 9 10 6 9 7 4 4 1 4 6 4 6 11 2 1 7 17 19 18
21 23 23 22 22 22 22 22 20 20 15 10 6 6 6 8 7 9 11 10 11 10 10 10 11 7 11 5 6 11 9 3 6 7 8 9 11 10 9 8 5 11 16 19 18
21 22 23 23 24 23 23 23 21 18 12 7 6 7 6 5 4 8 14 16 9 10 7 7 4 1 1 3 9 4 8 12 9 6 8 10 6 5 6 12 11 13 16 18 19
22 22 24 24 25 24 23 23 21 13 7 6 9 6 7 6 3 8 13 10 8 4 8 3 2 6 1 5 1 6 11 10 9 4 3 5 8 13 5 12 13 15 14 16 18
23 23 24 25 26 24 23 22 16 5 5 8 9 5 3 4 6 12 11 9 6 3 1 1 4 3 5 0 6 10 7 12 7 3 5 7 12 16 11 12 13 15 15 16 19
23 24 25 26 26 26 22 20 7 2 6 9 7 6 5 4 6 12 10 9 9 5 4 3 5 2 5 10 10 10 13 9 6 1 4 8 11 8 6 10 11 12 14 16 18
24 25 25 27 27 26 24 8 4 7 7 5 3 6 6 6 8 10 7 10 7 11 8 8 7 9 9 10 12 11 11 8 12 5 8 10 11 11 8 8 11 12 13 16 18
24 25 26 27 27 26 15 6 6 7 7 6 4 3 6 6 6 8 11 10 10 13 11 9 10 11 10 2 9 7 9 11 9 8 9 14 10 12 5 8 13 13 13 16 20
24 25 26 28 27 26 9 5 6 5 8 4 7 7 5 2 7 10 12 11 10 12 6 9 13 6 4 5 7 7 10 12 11 11 8 15 13 14 9 10 11 14 12 15 16
23 24 26 28 29 11 6 6 6 3 7 4 3 2 4 8 5 13 17 10 12 11 13 13 3 5 9 8 10 11 10 8 9 2 13 14 17 18 14 7 9 11 12 13 14
24 24 23 29 9 6 1 3 8 4 7 7 6 6 7 6 7 6 13 10 7 11 8 10 6 8 8 9 11 10 10 6 6 9 10 8 12 14 11 7 9 10 11 10 8
25 24 22 12 11 5 6 8 5 5 7 5 6 5 6 8 7 9 12 8 10 8 7 5 6 10 12 11 7 2 1 5 8 10 8 12 9 7 5 10 11 8 6 9 8
27 24 22 5 5 7 8 9 5 8 3 5 5 6 12 9 5 7 10 7 4 7 10 13 1 6 9 7 8 3 10 8 8 11 11 14 7 11 4 4 7 4 8 5 8
28 27 14 4 5 8 8 5 7 7 4 5 2 2 7 9 8 8 13 15 11 10 12 9 14 10 9 13 12 10 11 10 10 10 8 6 6 10 12 8 6 3 6 9 9
30 26 7 5 8 7 5 7 7 3 1 3 1 4 10 7 5 7 8 10 7 9 6 7 9 10 6 10 6 10 8 9 8 9 10 7 7 9 11 7 5 7 7 9 11
30 2 4 3 2 4 6 8 4 1 2 3 4 7 6 7 4 7 3 2 4 2 7 4 4 4 5 6 8 5 11 6 10 14 12 14 12 10 5 8 6 8 8 11 11
8 5 2 7 3 6 6 3 1 1 4 3 5 3 7 6 8 7 8 2 4 3 3 4 7 1 3 5 6 9 5 7 9 12 16 12 6 9 12 8 6 8 10 11 11
5 5 5 6 4 6 6 3 2 2 4 3 1 3 1 2 3 3 4 6 2 1 1 2 3 4 4 5 8 4 9 6 6 8 12 14 7 6 9 7 6 8 10 12 13
5 4 4 4 6 1 4 1 1 1 2 1 3 4 4 1 2 3 3 4 4 3 2 5 5 8 12 14 5 10 10 7 9 11 9 8 12 8 8 8 8 9 10 11 13
7 4 1 4 5 4 3 2 1 2 1 1 1 2 1 3 4 3 4 4 5 2 3 3 3 8 11 10 5 3 2 3 3 6 13 14 11 8 6 5 7 10 12 11 12
6 3 3 1 1 5 1 2 4 2 2 1 1 2 3 5 1 3 6 4 2 5 4 2 5 9 11 14 10 13 14 12 11 10 14 16 19 11 6 9 10 9 9 11 11
2 3 4 1 4 2 3 1 3 4 1 1 4 2 3 5 5 4 1 4 4 2 1 3 7 10 12 15 15 17 18 18 18 18 19 20 22 20 13 9 9 9 9 11 11
5 4 3 1 3 5 4 4 5 3 3 4 4 2 1 3 4 2 2 2 3 3 2 1 7 8 15 16 14 15 15 17 17 18 16 16 16 12 7 8 9 12 13 11 12
1 1 5 5 5 6 4 3 3 2 3 3 2 4 4 6 5 4 5 6 7 6 5 5 6 7 11 3 10 14 8 7 8 3 6 10 10 10 11 11 13 16 17 15 13
Wind_Direction
347 342 338 335 331 326 323 325 324 326 329 328 325 325 323 307 265 221 243 92 159 162 225 157 184 172 197 195 232 263 254 94 83 35 94 108 223 167 106 133 177 126 12 101 141
345 341 340 337 333 325 325 322 325 329 327 322 319 319 314 291 257 246 114 121 150 171 180 178 173 182 191 203 203 246 272 64 43 48 27 105 302 161 207 170 178 155 112 133 153
346 343 339 336 333 328 325 323 326 327 321 316 311 307 296 261 261 70 128 143 157 192 199 204 174 201 207 210 188 189 268 43 350 336 303 314 248 206 234 215 202 193 154 158 164
346 342 338 334 330 329 325 324 324 320 316 309 297 281 273 237 29 66 141 151 179 224 177 181 189 201 219 211 188 251 234 271 313 67 276 282 303 236 242 297 36 170 160 165 173
342 340 336 331 331 332 325 324 321 314 309 298 266 242 224 222 75 114 139 158 179 180 186 191 194 208 220 222 214 240 264 273 258 284 281 292 262 247 240 207 175 148 164 172 180
343 339 333 333 334 331 328 324 319 309 300 271 217 203 245 225 68 137 151 169 188 195 174 213 206 287 161 233 242 8 295 286 275 280 263 262 267 208 216 178 185 175 179 178 184
341 338 336 336 331 330 330 323 319 312 296 189 185 234 254 35 43 149 164 176 178 209 177 170 111 243 265 182 283 274 277 263 245 295 277 239 201 224 149 159 183 192 189 185 189
340 339 337 333 330 329 329 323 318 8 115 155 183 247 300 71 114 155 162 150 162 155 69 237 242 305 271 347 214 246 241 253 123 226 122 236 266 192 154 182 192 198 195 192 192
340 338 334 331 329 326 327 320 296 161 150 162 216 256 133 136 187 166 186 165 160 163 125 133 219 289 192 226 226 212 258 221 215 186 176 236 274 95 159 203 216 209 208 203 199
340 337 332 329 327 324 324 287 147 180 195 233 260 234 175 153 134 159 171 159 162 161 161 201 210 220 221 228 238 239 222 227 266 153 242 255 251 268 196 237 237 227 218 216 216
339 335 332 328 326 324 319 213 223 175 216 319 64 340 122 119 165 183 174 183 155 185 191 203 225 219 227 232 311 284 267 266 272 262 281 264 273 274 287 242 247 240 218 224 227
337 332 330 326 324 317 277 30 45 352 301 218 264 266 237 316 170 157 179 195 191 191 188 191 230 245 242 234 239 240 255 253 254 265 253 263 254 260 255 249 268 277 253 229 229
335 330 330 326 321 297 344 58 340 285 256 158 198 203 171 209 196 164 189 204 204 210 210 253 69 30 207 201 227 228 253 259 271 180 242 262 263 253 240 244 258 259 263 260 244
331 329 332 328 290 347 141 354 320 225 259 133 162 125 158 200 208 159 210 209 206 227 222 256 262 213 226 238 221 250 194 244 265 252 265 198 270 216 221 242 252 265 254 261 248
327 328 328 324 316 276 23 326 326 224 224 110 105 102 159 220 114 177 191 213 235 197 226 96 193 212 228 227 202 308 75 283 283 256 293 213 251 262 144 246 248 277 301 332 327
324 326 328 193 228 290 313 310 227 230 163 123 134 157 173 195 154 139 184 226 315 237 229 276 166 261 246 242 230 323 268 241 246 255 243 250 257 277 223 230 287 35 47 27 30
323 320 311 292 342 327 306 230 233 256 137 129 122 188 214 176 181 205 184 200 220 213 217 214 227 220 245 234 205 235 254 256 225 213 248 82 252 273 318 334 36 68 52 42 27
324 316 161 274 307 307 245 222 248 60 18 103 263 193 197 167 151 184 194 182 218 262 277 268 168 184 157 230 261 204 264 283 296 279 287 143 251 255 82 57 94 78 58 36 25
312 268 230 18 315 260 250 225 3 124 359 305 193 211 160 175 247 178 204 150 57 289 254 259 227 133 198 280 252 160 231 304 280 266 259 268 254 226 115 109 87 63 44 31 19
313 291 67 336 245 258 246 305 186 9 328 246 252 284 197 161 211 223 181 92 120 43 291 58 274 64 103 252 204 263 10 246 213 262 270 267 255 252 162 100 58 43 28 23 14
266 262 56 340 251 237 252 76 173 85 328 288 296 242 262 200 278 170 109 104 48 46 316 328 267 248 256 246 323 215 233 206 300 292 290 284 276 21 72 64 43 25 14 8 2
304 254 35 304 238 250 238 26 336 180 323 248 282 283 281 231 213 177 149 44 18 342 299 48 306 272 286 307 303 278 287 279 268 269 244 293 282 93 88 62 14 7 6 2 358
322 305 33 288 256 196 141 176 279 222 55 287 226 316 278 212 227 198 130 86 30 25 33 17 192 280 244 177 202 221 114 155 279 268 261 274 285 147 135 36 22 356 353 350 351
286 268 142 144 35 305 256 197 203 91 113 316 325 263 214 201 194 159 148 125 30 58 42 301 262 267 284 309 322 289 282 267 280 270 281 269 278 231 218 17 358 350 345 344 347
270 76 358 60 115 303 265 299 223 178 156 267 174 251 259 229 208 191 157 153 129 97 87 318 270 285 278 285 283 277 273 272 269 272 273 286 291 298 15 346 346 338 329 329 339
307 315 175 255 279 249 166 196 249 158 301 152 255 117 259 257 343 147 304 226 304 142 202 102 279 286 275 276 282 279 272 266 264 272 280 286 285 36 347 329 333 329 329 311 327
70 196 281 123 195 233 213 209 193 237 122 50 334 260 223 79 354 347 312 298 289 285 260 260 272 250 270 304 296 270 289 293 305 3 312 295 9 342 321 331 332 321 313 304 315